Location: Newark
(40.9833°N, 0.0333°W)
Time: 09:04:36
(UTC+00:00)

OTV 5 (USA 277) - Pass Details

Date: 30 October 2019
Orbit: 310 x 324 km, 54.5° (Epoch: 17 October)

Event Time Altitude Azimuth Distance (km) Brightness Sun altitude
Rises 17:29:22 0° 216° (SW) 2,042 ? -6.4°
Reaches altitude 10° 17:31:21 10° 210° (SSW) 1,219 ? -6.7°
Maximum altitude 17:33:58 47° 135° (SE) 436 ? -7.2°
Drops below altitude 10° 17:36:37 10° 59° (ENE) 1,234 ? -7.7°
Enters shadow 17:36:39 10° 59° (ENE) 1,249 ? -7.7°
